Regional Weather Roundup
Issued by NWS

Home | Current Version | Previous Version | Graphics & Text | Print | Product List | Glossary On
Versions: 1 2 3 4 5 6 7 8 9 10 11 12 13 14 15 16 17 18 19 20 21 22 23 24 25 26 27 28 29 30 31 32 33 34 35 36 37 38 39 40 41 42 43 44 45 46 47 48 49 50
000
ASUS45 KSLC 221510
RWRUT

UTAH REGIONAL WEATHER ROUNDUP
NATIONAL WEATHER SERVICE SALT LAKE CITY UT
900 AM MDT FRI AUG 22 2014

UTZ001>011-023>025-221600-

NORTHERN UTAH

CITY           SKY/WX    TMP DP  RH WIND       PRES   REMARKS
HILL AFB       CLOUDY    64  48  55 SE13      30.03S
LOGAN          LGT RAIN  59  55  87 SW5       30.05S
OGDEN          LGT RAIN  63  53  70 W3        30.01S
PROVO AIRPORT  MOSUNNY   66  45  45 SE10      30.07S
SALT LAKE CITY CLOUDY    71  47  42 S14       29.99S
VERNAL         MOSUNNY   64  48  56 CALM      30.13F
WENDOVER       CLOUDY    66  48  52 CALM      30.01R
HEBER CITY     PTSUNNY   59  50  72 NW3       30.11F
WEST JORDAN    MOSUNNY   68  55  64 S18       30.03R

$$

UTZ012>022-026-027-221600-

SOUTHERN UTAH

CITY           SKY/WX    TMP DP  RH WIND       PRES   REMARKS
BRYCE CANYON   CLOUDY    47  44  90 W5        30.28S
CEDAR CITY     SUNNY     63  47  55 SE5       30.16S
MILFORD        SUNNY     66  49  54 S20       30.10S
MOAB/CYNLANDS  CLOUDY    71  51  49 CALM      30.07R
PRICE          MOSUNNY   68  42  38 E7        30.15R
ST GEORGE      PTSUNNY   70  52  52 CALM      30.06S
KANAB            N/A     63  52  67 CALM      30.19S

$$

REGIONAL REPORTS     COLORADO/ARIZONA

CITY           SKY/WX    TMP DP  RH WIND       PRES   REMARKS
CRAIG, CO      PTSUNNY   62  49  62 E12       30.18F
GRAND JUNCTION MOSUNNY   69  51  52 SE16      30.12F
RIFLE          CLOUDY    63  51  65 E12       30.17F
MONTROSE       PTSUNNY   62  55  77 CALM      30.21F
CORTEZ         SUNNY     59  53  80 CALM      30.22S
PAGE, AZ       PTSUNNY   68  57  68 CALM      30.12S
GRAND CANYON   MOSUNNY   55  52  89 SW6       30.26R
KINGMAN        SUNNY     68  57  68 SE8       30.09S
FLAGSTAFF      CLOUDY    55  49  80 CALM      30.28F

$$

REGIONAL REPORTS    NEVADA/IDAHO/WYOMING

CITY           SKY/WX    TMP DP  RH WIND       PRES   REMARKS
LAS VEGAS, NV  SUNNY     74  52  46 S6        29.96S
ELY            SUNNY     61  47  59 S13       30.14S
ELKO           CLOUDY    61  48  62 CALM      30.01S
POCATELLO, ID  MOSUNNY   56  54  93 E10       30.06S
BURLEY         LGT RAIN  57  54  89 E12       29.99S
EVANSTON, WY   CLOUDY    54  46  74 NE6       30.19R
ROCK SPRINGS   MOSUNNY   56  43  61 CALM      30.18F

$$


USA.gov is the U.S. government's official web portal to all federal, state and local government web resources and services.